Temp
52 51 51 49 48 49 48 49 49 48 48 48 47 47 47 46 44 42 41 41 39 38 38 37 37 37 35 33 31 30 29 28 24 27 27 28 27 27 30 29 32 31 32
53 50 49 50 49 48 50 50 49 48 48 48 47 47 47 46 45 43 41 41 38 37 37 36 37 40 35 33 30 29 28 27 26 24 25 25 26 27 28 27 32 35 32
51 50 49 48 49 49 50 49 48 48 45 46 46 46 46 45 43 42 41 39 37 37 38 37 36 35 32 30 29 28 27 30 26 23 24 25 25 26 27 28 29 29 33
51 50 49 49 49 49 50 48 48 47 45 45 46 46 45 43 43 42 41 39 37 37 37 36 35 34 32 30 29 28 28 25 25 23 23 24 24 27 26 24 26 29 29
50 50 49 50 49 51 48 47 45 45 46 46 45 45 43 43 44 40 39 37 36 36 35 36 35 35 38 33 30 27 25 23 23 22 22 22 23 22 22 24 23 25 26
50 51 50 49 51 47 46 45 45 45 45 45 45 43 41 45 43 41 39 36 36 35 33 34 35 37 37 37 37 34 29 24 22 20 20 20 21 21 21 21 21 22 21
49 49 50 48 46 45 45 45 44 44 43 43 42 42 42 41 40 41 39 35 34 33 34 34 32 34 33 31 34 34 32 32 31 23 19 20 20 22 23 22 23 23 23
45 45 45 46 44 44 44 43 42 42 41 40 41 41 39 39 39 39 37 33 33 33 32 31 30 30 29 29 28 27 26 27 27 28 24 23 24 25 25 27 26 26 26
43 43 45 45 43 43 41 41 40 39 40 40 39 39 38 37 38 38 35 31 31 31 32 31 30 29 32 34 28 26 26 26 32 32 33 32 32 32 31 25 22 22 20
41 42 44 44 43 41 40 40 40 40 40 39 37 36 36 35 37 37 34 28 29 29 29 30 35 31 33 33 26 24 21 25 25 26 26 27 29 27 30 26 24 21 22
44 43 43 43 42 41 40 40 40 39 36 33 32 32 33 32 32 37 36 30 30 28 29 28 29 33 34 34 33 25 23 26 25 25 25 24 25 25 26 27 25 23 22
43 43 43 42 42 42 39 39 38 34 32 31 30 30 29 30 33 34 36 35 32 28 28 29 28 33 34 34 32 32 32 27 19 17 17 20 20 21 24 25 26 26 26
40 41 40 40 39 38 35 34 32 32 29 29 29 29 29 30 27 34 35 35 34 28 29 29 31 33 34 32 33 33 28 21 16 12 17 18 18 23 24 24 25 26 27
36 35 35 34 34 34 34 33 31 29 27 30 29 29 30 28 27 28 31 32 33 31 28 30 28 28 24 24 23 28 23 22 20 17 16 15 17 18 17 21 19 22 20
34 33 32 30 32 32 32 31 31 31 32 31 31 31 29 29 30 32 31 30 31 32 31 25 24 21 23 24 22 23 21 20 17 14 12 14 16 17 17 18 19 19 13
32 31 29 29 29 30 30 32 35 34 35 35 35 34 34 34 35 36 36 35 35 33 27 25 24 23 22 23 21 21 18 18 19 18 13 15 16 14 15 17 18 15 14
30 30 30 30 30 29 30 29 28 33 36 36 35 35 36 36 36 36 36 35 34 33 26 25 24 25 24 24 23 21 21 20 19 18 17 15 16 14 12 14 14 15 14
29 29 27 27 27 28 28 29 31 31 30 32 35 35 36 37 37 37 37 34 31 31 29 27 28 28 25 24 23 22 22 20 16 16 13 13 13 14 9 12 12 7 11
27 26 26 24 23 24 25 25 26 25 25 27 29 31 34 33 33 35 35 32 31 30 30 29 28 27 25 25 23 23 23 21 14 10 15 15 11 13 10 11 9 9 8
23 23 21 23 23 23 23 23 23 23 23 24 25 26 28 29 29 29 30 30 32 32 30 29 30 28 27 25 24 24 23 21 18 15 16 15 16 13 12 10 3 3 12
21 22 21 22 20 20 20 19 21 20 20 20 20 20 20 23 26 28 31 32 31 31 31 30 29 29 28 27 26 25 24 23 23 21 20 18 16 14 15 11 8 10 13
19 17 17 16 17 16 16 17 16 17 16 16 16 18 19 20 20 22 29 32 32 31 33 31 30 30 30 28 28 27 25 24 25 24 23 21 19 18 18 12 5 4 9
16 10 11 13 12 11 11 12 13 12 12 13 14 15 15 16 16 17 18 19 31 33 32 31 31 31 30 30 30 29 27 26 26 27 25 22 20 20 17 14 10 3 4
12 4 9 9 8 8 7 7 9 8 9 9 10 12 12 14 14 15 15 16 18 19 20 21 22 23 25 30 31 30 30 29 29 27 27 25 23 21 18 14 12 7 4
3 1 -0 3 1 3 3 5 5 5 5 6 7 9 11 12 13 12 13 13 14 15 17 18 19 20 21 22 23 26 29 30 29 28 27 26 23 21 20 17 15 9 4
3 2 0 -4 -2 -1 -0 1 -0 2 2 3 5 6 7 9 9 10 11 11 11 12 14 15 17 16 17 19 21 23 23 25 26 28 27 26 24 22 20 18 16 14 11
MSLP
1016.78 1017.28 1017.84 1018.65 1019.45 1020.36 1020.97 1021.73 1022.36 1022.76 1023.11 1023.36 1023.64 1023.77 1024.28 1024.63 1024.67 1024.92 1025.17 1025.32 1025.51 1025.70 1025.87 1025.99 1026.08 1026.22 1026.42 1026.64 1026.78 1027.05 1027.22 1027.43 1027.54 1026.91 1026.61 1026.28 1026.15 1026.00 1025.39 1024.72 1024.29 1023.87 1023.48
1016.55 1017.15 1017.82 1018.79 1019.59 1020.40 1020.86 1021.35 1021.79 1022.18 1022.53 1022.84 1023.26 1023.59 1023.95 1024.20 1024.31 1024.55 1024.71 1024.85 1025.06 1025.42 1025.61 1025.85 1025.82 1025.91 1026.19 1026.36 1026.58 1026.80 1026.99 1027.04 1027.24 1026.96 1026.59 1026.31 1026.09 1025.43 1024.93 1024.52 1023.84 1023.45 1023.15
1017.04 1017.63 1018.33 1018.90 1019.35 1019.86 1020.38 1020.94 1021.36 1021.73 1022.24 1022.60 1022.93 1023.20 1023.43 1023.84 1023.95 1024.14 1024.30 1024.33 1024.44 1024.61 1024.93 1025.29 1025.32 1025.48 1025.70 1025.95 1026.21 1026.44 1026.68 1026.68 1026.85 1026.98 1026.54 1026.12 1025.71 1025.13 1024.49 1024.00 1023.61 1023.15 1022.76
1017.19 1017.64 1018.03 1018.33 1018.74 1019.36 1019.88 1020.42 1020.84 1021.37 1021.96 1022.39 1022.69 1023.08 1023.28 1023.35 1023.46 1023.56 1023.84 1024.05 1024.10 1024.08 1024.34 1024.74 1025.02 1025.24 1025.35 1025.54 1025.80 1026.04 1026.27 1026.48 1026.59 1026.67 1026.36 1025.99 1025.53 1024.77 1024.36 1024.07 1023.18 1022.97 1022.28
1016.53 1017.11 1017.44 1017.84 1018.36 1019.04 1019.70 1020.35 1020.93 1021.56 1022.00 1022.29 1022.78 1023.05 1023.06 1023.13 1023.04 1023.00 1023.08 1023.53 1023.89 1024.04 1024.34 1024.66 1024.92 1025.12 1024.85 1025.09 1025.33 1025.68 1025.98 1026.27 1026.40 1026.39 1026.12 1025.70 1025.18 1024.64 1024.42 1023.99 1023.57 1022.77 1022.16
1016.29 1016.39 1016.96 1017.60 1018.23 1019.15 1019.81 1020.59 1021.40 1022.07 1022.51 1022.62 1022.75 1022.94 1022.94 1022.56 1022.05 1022.02 1022.30 1022.79 1023.43 1023.85 1024.04 1024.08 1024.09 1024.31 1024.32 1024.41 1024.71 1025.07 1025.55 1025.79 1025.94 1026.01 1025.73 1025.46 1024.99 1024.67 1024.29 1023.95 1023.44 1022.83 1021.81
1015.60 1016.30 1016.95 1017.60 1018.44 1019.21 1020.16 1021.06 1021.68 1022.16 1022.39 1022.63 1022.77 1022.51 1022.12 1021.95 1021.67 1021.60 1021.70 1022.12 1022.76 1023.16 1023.54 1023.71 1024.00 1024.10 1024.25 1024.61 1024.62 1024.81 1025.07 1025.16 1025.15 1025.28 1025.21 1025.00 1024.68 1024.32 1023.94 1023.44 1022.95 1022.40 1021.71
1016.47 1017.19 1017.86 1018.54 1019.25 1019.85 1020.21 1020.95 1021.41 1021.99 1022.29 1022.64 1022.46 1022.25 1021.92 1021.60 1021.30 1021.16 1021.22 1021.61 1022.31 1022.68 1022.82 1023.06 1023.43 1023.74 1024.06 1024.26 1024.44 1024.67 1024.81 1024.89 1024.82 1024.62 1024.53 1024.32 1024.18 1023.73 1023.47 1022.87 1022.41 1021.87 1021.14
1017.22 1017.82 1018.34 1018.72 1019.70 1020.72 1021.80 1021.32 1021.82 1022.29 1022.33 1021.95 1022.04 1021.99 1021.69 1021.26 1021.05 1020.98 1021.10 1021.40 1021.89 1022.27 1022.52 1022.62 1022.86 1023.15 1023.31 1023.42 1023.89 1024.25 1024.36 1024.27 1023.98 1023.73 1023.53 1023.34 1023.14 1022.91 1022.68 1022.43 1022.19 1021.77 1020.81
1018.13 1018.70 1019.24 1019.98 1020.44 1020.36 1021.38 1021.67 1021.88 1021.98 1021.67 1021.86 1021.69 1021.57 1021.37 1020.91 1020.72 1020.85 1021.04 1021.32 1021.85 1022.13 1022.25 1022.21 1022.22 1022.45 1022.69 1022.84 1023.16 1023.64 1023.90 1023.68 1023.54 1023.34 1023.19 1022.97 1022.80 1022.67 1022.29 1022.23 1021.99 1021.68 1021.08
1019.06 1019.53 1020.03 1020.27 1020.77 1021.21 1021.30 1021.64 1021.68 1021.59 1021.62 1021.66 1021.52 1021.26 1021.05 1020.69 1020.38 1020.50 1020.73 1020.87 1021.07 1021.53 1021.85 1021.87 1021.79 1021.87 1022.05 1022.19 1022.42 1022.84 1023.01 1022.91 1022.94 1022.91 1022.81 1022.70 1022.53 1022.33 1021.99 1021.72 1021.50 1021.37 1020.94
1019.77 1020.00 1020.29 1020.76 1021.04 1021.27 1021.41 1021.42 1021.40 1021.52 1021.63 1021.54 1021.41 1021.16 1020.59 1020.13 1019.99 1019.96 1020.14 1020.24 1020.34 1020.81 1021.10 1021.04 1021.12 1021.37 1021.56 1021.70 1021.85 1022.01 1022.13 1022.25 1022.32 1022.50 1022.68 1022.48 1022.30 1021.98 1021.56 1021.30 1020.95 1020.53 1020.15
1020.62 1020.73 1020.94 1021.16 1021.30 1021.37 1021.50 1021.51 1021.47 1021.40 1021.39 1021.26 1021.17 1020.78 1020.29 1019.75 1019.58 1019.58 1019.74 1019.85 1020.03 1020.28 1020.29 1020.28 1020.47 1020.78 1021.02 1021.18 1021.30 1021.41 1021.60 1021.72 1021.94 1022.44 1022.29 1022.09 1021.75 1021.32 1021.14 1020.88 1020.46 1019.96 1019.41
1021.31 1021.52 1021.64 1021.74 1021.68 1021.53 1021.42 1021.34 1021.32 1021.15 1021.03 1020.87 1020.61 1020.22 1019.74 1019.48 1019.27 1019.00 1019.07 1019.14 1019.15 1019.37 1019.63 1019.86 1019.93 1020.17 1020.40 1020.54 1020.76 1020.89 1021.00 1021.13 1021.35 1021.54 1021.57 1021.34 1021.20 1021.11 1021.02 1020.72 1020.44 1019.86 1019.38
1021.88 1021.97 1022.01 1022.02 1021.88 1021.60 1021.28 1021.09 1020.85 1020.43 1020.33 1020.02 1019.65 1019.44 1019.20 1018.62 1018.26 1017.96 1018.06 1018.21 1018.16 1018.18 1018.35 1019.03 1019.48 1019.89 1019.90 1019.95 1020.20 1020.31 1020.39 1020.52 1020.88 1020.78 1021.06 1021.21 1021.01 1020.98 1020.87 1020.54 1020.32 1019.92 1019.61
1022.31 1022.33 1022.28 1022.15 1021.90 1021.63 1021.24 1020.58 1020.15 1019.67 1019.28 1018.94 1018.50 1018.32 1017.71 1017.35 1017.02 1016.85 1016.80 1016.77 1016.87 1017.23 1017.86 1018.04 1018.21 1018.49 1018.82 1018.88 1019.16 1019.43 1019.67 1019.80 1019.85 1020.01 1020.31 1020.54 1020.72 1020.76 1020.75 1020.48 1020.20 1020.03 1019.64
1022.79 1022.78 1022.65 1022.45 1022.21 1021.87 1021.40 1020.96 1020.01 1018.59 1018.60 1017.95 1017.62 1017.19 1016.76 1016.09 1015.79 1015.55 1015.46 1015.45 1015.44 1016.08 1016.52 1016.71 1016.80 1016.95 1017.18 1017.58 1017.97 1018.32 1018.55 1018.61 1018.72 1019.14 1019.44 1019.85 1020.08 1020.33 1020.49 1020.32 1020.18 1019.93 1019.44
1023.22 1023.18 1023.12 1022.94 1022.67 1022.27 1021.79 1021.19 1020.59 1019.70 1018.49 1017.29 1017.08 1016.69 1016.07 1015.37 1014.72 1014.46 1014.38 1014.48 1014.38 1014.54 1014.72 1015.19 1015.33 1015.54 1015.91 1016.30 1016.73 1017.12 1017.35 1017.64 1018.08 1018.35 1018.75 1019.05 1019.47 1019.87 1020.07 1020.05 1019.94 1019.91 1019.50
1023.84 1023.70 1023.57 1023.35 1023.05 1022.67 1022.15 1021.59 1021.01 1020.37 1019.65 1018.63 1017.45 1016.57 1016.09 1015.28 1014.60 1014.04 1013.66 1013.48 1013.18 1013.14 1013.35 1013.71 1014.07 1014.39 1014.64 1014.97 1015.32 1015.76 1016.07 1016.50 1017.01 1017.56 1017.72 1018.12 1018.73 1019.19 1019.45 1019.57 1019.53 1019.50 1019.31
1024.60 1024.40 1024.07 1023.67 1023.30 1022.91 1022.49 1022.02 1021.42 1020.83 1020.16 1019.26 1018.18 1017.11 1016.01 1015.21 1014.35 1013.58 1013.09 1012.69 1012.18 1011.82 1011.92 1012.44 1012.77 1013.22 1013.59 1013.87 1014.12 1014.45 1014.89 1015.37 1015.87 1016.40 1016.70 1017.10 1017.53 1018.20 1018.61 1018.90 1019.08 1019.19 1018.98
1025.13 1024.88 1024.55 1024.23 1023.98 1023.68 1023.32 1022.84 1022.22 1021.55 1020.74 1020.07 1019.31 1018.45 1017.51 1015.93 1014.21 1013.27 1012.32 1011.54 1011.07 1010.86 1010.94 1011.30 1011.71 1012.02 1012.35 1012.65 1012.95 1013.22 1013.51 1013.89 1014.35 1014.85 1015.40 1015.92 1016.54 1017.24 1017.63 1018.09 1018.56 1018.67 1018.67
1025.88 1025.84 1025.50 1025.19 1024.87 1024.52 1024.14 1023.58 1023.05 1022.34 1021.74 1020.84 1019.81 1018.78 1017.82 1016.69 1015.53 1014.26 1012.03 1010.35 1009.96 1009.90 1009.82 1010.01 1010.39 1010.73 1011.00 1011.30 1011.58 1011.88 1012.19 1012.53 1013.01 1013.56 1014.11 1014.64 1015.31 1015.96 1016.56 1017.39 1017.90 1018.23 1018.31
1026.56 1026.68 1026.37 1025.93 1025.68 1025.32 1024.88 1024.36 1023.74 1023.20 1022.47 1021.59 1020.63 1019.57 1018.57 1017.56 1016.61 1015.48 1014.17 1012.58 1009.91 1009.31 1009.18 1009.33 1009.68 1009.82 1009.93 1010.00 1010.13 1010.45 1010.84 1011.23 1011.51 1012.22 1012.94 1013.52 1014.18 1014.79 1015.54 1016.41 1017.05 1017.69 1017.97
1027.23 1027.25 1027.00 1026.68 1026.32 1025.98 1025.54 1025.00 1024.49 1023.92 1023.23 1022.36 1021.43 1020.43 1019.44 1018.39 1017.43 1016.42 1015.46 1014.33 1013.09 1012.01 1011.42 1010.53 1010.47 1010.24 1009.87 1009.20 1009.16 1009.46 1009.83 1010.20 1010.56 1011.14 1011.71 1012.35 1012.98 1013.70 1014.45 1015.40 1016.16 1016.81 1017.37
1027.82 1027.73 1027.71 1027.56 1027.27 1026.82 1026.22 1025.60 1025.14 1024.50 1023.77 1023.01 1022.08 1021.12 1020.17 1019.14 1018.23 1017.38 1016.46 1015.61 1014.58 1013.57 1012.76 1012.11 1011.39 1010.94 1010.62 1010.21 1009.81 1009.56 1009.45 1009.62 1009.92 1010.40 1010.96 1011.50 1012.05 1012.68 1013.38 1014.10 1015.13 1016.08 1016.77
1028.37 1028.29 1028.22 1028.10 1027.82 1027.34 1026.93 1026.35 1025.77 1025.03 1024.32 1023.56 1022.69 1021.85 1020.96 1020.01 1019.20 1018.28 1017.33 1016.53 1015.58 1014.61 1013.74 1012.90 1012.11 1011.61 1011.06 1010.61 1010.30 1010.08 1009.96 1009.84 1009.90 1010.07 1010.40 1010.79 1011.33 1011.94 1012.60 1013.25 1014.11 1015.04 1015.86
Wind_Speed
12 12 13 10 9 9 9 9 9 8 7 7 6 6 6 5 4 5 4 3 3 3 3 5 6 3 2 2 1 1 2 2 3 3 2 2 3 5 7 5 7 6 5
11 9 10 10 10 10 10 11 9 9 7 8 6 5 5 4 3 6 6 6 6 6 6 5 5 3 4 4 3 4 4 3 3 5 2 3 5 5 6 6 6 7 5
8 9 8 10 12 11 10 10 9 8 7 7 6 6 4 6 5 6 6 6 7 7 7 7 6 6 5 4 4 4 3 2 3 3 4 3 4 4 5 5 6 7 6
10 11 12 13 13 11 11 10 10 8 7 6 5 5 6 6 6 6 6 6 7 6 6 6 5 6 6 6 4 5 3 3 3 3 5 5 4 4 3 4 9 6 9
13 14 14 12 9 9 8 7 6 6 5 4 2 4 5 5 5 7 7 7 7 6 4 3 3 6 9 7 3 5 3 2 3 4 5 3 4 4 6 5 7 8 9
12 14 11 9 7 6 8 7 6 4 3 2 3 5 7 6 11 13 10 8 6 6 6 6 5 7 7 8 9 8 7 4 4 3 3 4 5 4 3 5 6 8 7
12 9 8 8 10 11 10 8 6 5 2 4 5 6 7 7 11 13 13 7 7 7 6 5 5 4 6 5 7 6 6 7 8 4 4 4 3 3 5 7 8 9 8
7 9 10 11 12 10 10 7 6 3 1 5 6 7 6 6 10 11 14 7 6 7 7 7 6 6 6 6 5 5 5 5 5 5 5 5 5 6 5 8 9 9 7
11 11 12 14 12 8 4 5 2 2 5 4 4 6 7 7 8 10 10 6 6 6 5 6 6 6 9 13 6 6 5 6 6 8 8 10 12 14 12 5 6 7 9
11 12 11 10 7 7 4 1 2 5 3 4 5 5 8 7 7 11 9 4 5 4 5 6 11 8 11 13 6 5 5 6 4 4 4 6 7 8 13 5 5 6 8
11 10 8 7 5 2 1 3 4 5 4 5 6 6 7 7 7 13 14 6 6 5 5 5 5 12 13 15 14 6 7 5 5 4 4 4 4 5 4 5 5 5 7
7 6 6 3 2 1 4 4 4 4 5 6 5 6 5 5 9 11 16 15 10 6 7 6 6 14 15 16 12 12 13 6 3 2 1 4 4 4 4 5 7 7 7
5 4 3 1 2 3 4 5 4 5 4 5 5 6 6 4 4 11 13 16 14 6 6 9 12 15 16 12 17 14 8 3 3 1 3 4 3 4 4 5 6 8 8
5 4 4 3 5 4 4 4 4 4 4 6 5 7 7 4 4 4 6 7 13 9 8 8 6 6 7 6 4 7 4 4 4 4 3 3 2 1 2 2 3 5 4
4 4 5 3 5 5 5 5 5 6 7 7 7 7 7 8 7 10 9 7 8 11 8 4 5 4 6 7 5 6 4 3 4 3 3 3 2 1 2 2 2 3 1
5 4 4 4 4 5 5 8 9 15 16 17 19 14 9 16 15 15 16 18 19 15 5 6 8 8 9 8 7 7 4 5 4 4 3 3 3 2 2 2 2 2 2
6 7 5 6 6 6 7 7 11 10 13 16 17 20 21 21 19 19 18 19 18 14 7 8 9 9 9 8 8 7 7 6 5 4 4 5 4 3 2 2 2 2 2
7 7 5 5 6 7 7 9 9 11 14 13 9 14 18 23 23 22 24 18 9 10 9 10 10 9 8 8 7 8 7 5 4 4 4 4 4 3 2 3 2 2 2
7 6 7 5 5 6 7 7 8 9 10 11 13 14 14 18 23 25 21 11 9 9 10 10 9 8 8 8 8 8 8 7 5 4 5 6 5 4 4 4 3 4 3
6 8 6 5 6 7 7 8 9 8 10 11 11 12 12 13 11 9 8 9 10 11 8 9 8 8 8 8 8 8 7 7 6 6 6 5 5 5 5 4 3 3 2
6 7 9 7 7 7 8 8 9 9 9 9 10 12 21 15 12 12 12 12 9 8 8 7 7 8 8 8 8 8 9 8 7 7 6 6 6 5 6 4 4 4 3
6 7 7 6 6 7 8 8 8 8 9 10 11 12 19 11 12 16 14 8 8 9 8 8 8 8 8 9 9 9 9 9 8 7 7 6 7 7 6 4 3 3 3
4 5 6 6 6 8 7 7 8 9 10 10 11 11 11 11 11 12 14 17 9 6 5 5 5 7 8 9 10 9 9 9 9 8 8 7 7 7 7 5 4 3 3
4 4 6 6 6 7 6 7 7 9 9 9 10 10 11 11 11 12 12 13 13 12 10 7 5 7 7 4 6 7 8 7 6 8 11 8 8 8 7 5 5 5 4
3 3 3 5 5 6 7 7 7 8 8 9 9 10 11 11 11 11 11 11 11 12 12 10 7 8 8 9 7 6 3 8 8 8 7 8 9 10 9 8 7 4 4
3 4 3 3 3 5 6 6 7 8 8 9 9 10 11 10 11 11 10 12 11 11 13 10 10 12 10 6 6 7 6 5 1 5 6 6 7 7 7 9 12 7 6
Wind_Direction
169 167 165 160 148 149 154 158 159 164 163 168 171 161 183 199 180 179 181 195 187 201 197 198 217 215 223 219 141 163 185 179 238 283 251 266 280 280 292 290 295 290 280
174 163 159 156 157 164 167 170 170 171 172 167 171 171 187 198 213 196 201 190 193 194 207 207 219 207 216 197 194 206 211 209 216 272 266 274 249 277 277 291 299 302 297
164 159 159 167 170 178 179 177 174 166 169 170 172 185 182 219 216 218 218 213 202 198 196 205 213 206 216 204 209 217 223 234 216 246 279 259 265 268 298 297 292 291 281
161 174 185 183 179 185 175 179 177 168 163 174 188 192 223 223 218 221 213 211 206 199 199 205 219 217 214 215 221 224 212 235 250 259 277 276 256 286 283 312 311 306 306
175 189 192 183 177 173 174 162 135 138 179 165 168 255 255 246 238 221 200 203 201 197 185 199 221 237 226 213 183 211 196 222 256 268 276 270 293 313 319 316 301 308 304
190 196 180 171 161 132 115 111 113 116 95 159 250 256 266 255 242 225 195 189 185 179 194 211 204 237 238 198 209 191 185 202 240 241 250 273 288 288 291 292 294 306 311
188 172 155 130 115 117 109 101 99 100 67 351 293 281 274 270 257 237 203 173 177 188 195 188 213 222 210 202 207 209 229 252 251 226 250 249 267 267 289 298 292 284 280
85 90 99 105 103 107 111 109 110 77 295 254 271 277 274 271 264 242 190 167 173 195 195 192 197 214 212 207 204 226 240 252 257 241 230 255 247 264 252 286 295 298 285
96 101 109 115 111 102 86 112 109 247 252 260 265 278 286 292 277 219 170 168 181 199 203 192 196 213 227 221 198 225 250 262 264 263 275 293 306 310 310 312 305 311 307
95 100 97 97 106 109 114 167 240 248 264 274 283 283 280 280 267 214 187 155 184 202 212 213 221 206 224 218 199 211 243 257 258 274 288 296 299 294 307 295 289 297 306
93 90 89 82 84 129 170 235 259 259 265 284 287 285 281 264 262 218 202 185 202 195 209 214 217 224 222 215 214 203 221 231 248 241 259 271 282 282 285 282 272 258 280
99 104 95 113 165 212 247 251 258 269 276 281 283 283 276 280 246 230 214 214 202 190 212 217 212 218 223 223 224 233 248 241 214 233 236 274 266 274 272 280 284 278 256
69 62 86 189 269 300 300 284 288 279 255 267 265 269 276 282 256 241 236 232 227 217 223 222 215 220 225 229 235 241 250 213 220 203 250 251 216 244 284 286 292 293 286
44 17 350 331 309 300 288 272 267 266 265 261 260 268 266 259 255 227 230 237 233 218 236 240 213 201 207 212 230 246 219 216 211 216 223 225 243 286 276 261 274 304 301
7 344 325 305 300 295 273 256 255 245 233 258 257 256 260 267 243 222 216 221 224 228 213 190 203 210 222 226 230 233 232 217 207 206 202 225 231 228 263 271 263 296 273
5 347 326 320 317 311 302 303 257 256 260 258 259 248 258 245 250 241 234 234 235 224 201 216 220 214 222 224 223 229 215 224 224 206 207 205 213 216 250 278 258 253 272
24 7 357 352 339 328 323 313 313 306 272 275 265 265 255 249 243 247 246 244 237 214 213 220 224 214 219 222 222 218 228 217 205 200 196 202 201 218 216 250 270 269 289
15 5 360 343 339 334 328 321 318 314 314 313 289 266 272 268 258 258 260 268 245 214 209 225 227 221 218 216 215 216 219 217 199 202 195 195 189 193 215 239 236 239 263
3 353 348 334 327 322 322 321 319 316 310 306 310 308 309 295 286 277 269 258 243 230 220 222 223 222 219 214 213 213 209 210 193 188 200 195 191 178 219 232 234 250 255
359 343 340 333 337 340 334 334 329 330 327 323 315 304 301 301 297 283 271 261 255 240 211 218 218 223 225 217 213 209 206 205 195 197 203 197 191 180 208 210 197 215 250
2 357 346 359 351 344 343 333 332 323 322 326 324 331 341 327 291 279 278 268 243 219 217 210 215 219 218 220 215 207 206 201 201 199 196 198 180 191 206 195 199 209 227
20 1 352 348 349 346 336 336 329 337 329 328 327 329 342 346 342 339 304 261 238 230 219 209 210 212 215 215 214 210 205 198 194 198 199 192 184 192 180 177 181 199 198
23 1 349 350 345 342 340 338 339 339 332 330 330 333 339 339 342 346 341 348 308 260 219 200 212 228 219 218 215 210 204 200 195 188 199 194 187 186 176 180 172 170 180
359 7 2 354 347 341 337 332 336 331 332 332 332 334 336 337 342 344 349 348 350 358 355 17 16 8 1 272 212 200 202 199 181 189 191 191 192 183 172 162 169 175 166
3 351 1 347 330 336 331 333 334 327 331 331 330 332 332 336 344 343 347 343 344 345 346 342 355 355 358 358 5 4 227 201 186 179 184 190 189 180 181 178 162 153 147
7 357 342 327 333 338 333 330 329 328 333 330 331 332 327 341 335 336 337 341 336 335 334 335 335 340 342 343 349 355 357 354 339 211 190 192 186 179 176 179 170 168 156